Parsons, KS

6:13 PM CDT on August 20, 2019 (GMT -0500)
Tri-City

Weather History for KPPF - July, 2019

Change the Weather History Date:

Wednesday, July 17, 2019

  Actual Average Record
Temperature  
Mean Temperature 88 °F -  
Max Temperature 96 °F 92 °F 111 °F (1954)
Min Temperature 79 °F 68 °F 56 °F (1967)
Cooling Degree Days 22    
Growing Degree Days 38 (Base 50)    
Moisture  
Dew Point 75 °F    
Average Humidity 70    
Maximum Humidity 90    
Minimum Humidity 52    
Precipitation  
Precipitation 0.00 in - - ()
Sea Level Pressure  
Sea Level Pressure 29.89 in    
Wind  
Wind Speed 8 mph (South)    
Max Wind Speed 15 mph    
Max Gust Speed 25 mph    
Visibility 10 miles    
Events      
Averages and records for this station are not official NWS values.
T = Trace of Precipitation, MM = Missing Value Source: NWS Daily Summary

Daily Weather History Graph

Daily Weather History Graph

Search for Another Location

Airport or City:

Astronomy

Jul. 17, 2019 Rise Set
Actual Time 6:14 AM CDT 8:41 PM CDT
Civil Twilight 5:44 AM CDT 9:11 PM CDT
Nautical Twilight 5:07 AM CDT 9:48 PM CDT
Astronomical Twilight 4:26 AM CDT 10:29 PM CDT
Moon 9:31 PM CDT (7/17) 6:48 AM CDT (7/17)
Length of Visible Light 15h 26m
Length of Day
14h 26m
Full, 99% of the Moon is Illuminated
Jul 17
Full
Jul 24
Last Quarter
Jul 31
New
Aug 7
First Quarter
Aug 15
Full

Hourly Weather History & Observations

Time (CDT) Temp. Heat Index Dew Point Humidity Pressure Visibility Wind Dir Wind Speed Gust Speed Precip Events Conditions
12:52 AM 80.1 °F 84.2 °F 73.0 °F 79% 29.91 in 10.0 mi SE 3.5 mph - N/A   Clear
1:52 AM 80.1 °F 84.2 °F 73.0 °F 79% 29.90 in 10.0 mi SSE 5.8 mph - N/A   Clear
2:52 AM 79.0 °F - 73.9 °F 84% 29.88 in 10.0 mi South 4.6 mph - N/A   Clear
3:52 AM 80.1 °F 85.4 °F 75.9 °F 87% 29.88 in 10.0 mi South 3.5 mph - N/A   Clear
4:52 AM 79.0 °F - 75.9 °F 90% 29.89 in 10.0 mi South 4.6 mph - N/A   Clear
5:52 AM 79.0 °F - 75.9 °F 90% 29.89 in 10.0 mi South 5.8 mph - N/A   Clear
6:52 AM 79.0 °F - 75.9 °F 90% 29.90 in 10.0 mi South 5.8 mph - N/A   Clear
7:52 AM 81.0 °F 87.9 °F 77.0 °F 88% 29.91 in 10.0 mi South 8.1 mph - N/A   Clear
8:52 AM 84.9 °F 93.3 °F 75.0 °F 72% 29.92 in 10.0 mi SSW 10.4 mph 18.4 mph N/A   Clear
9:52 AM 88.0 °F 98.5 °F 75.9 °F 67% 29.93 in 10.0 mi SSW 12.7 mph 18.4 mph N/A   Clear
10:52 AM 90.0 °F 101.3 °F 75.9 °F 63% 29.93 in 10.0 mi South 11.5 mph 19.6 mph N/A   Clear
11:52 AM 91.9 °F 105.9 °F 77.0 °F 62% 29.93 in 10.0 mi SSW 11.5 mph - N/A   Clear
12:52 PM 91.9 °F 103.9 °F 75.9 °F 59% 29.93 in 10.0 mi South 13.8 mph 21.9 mph N/A   Clear
1:52 PM 93.9 °F 108.4 °F 77.0 °F 58% 29.91 in 10.0 mi South 11.5 mph 24.2 mph N/A   Clear
2:52 PM 95.0 °F 108.2 °F 75.9 °F 54% 29.90 in 10.0 mi SSW 15.0 mph 24.2 mph N/A   Clear
3:52 PM 96.1 °F 109.4 °F 75.9 °F 52% 29.88 in 10.0 mi South 12.7 mph 24.2 mph N/A   Clear
4:52 PM 95.0 °F 108.2 °F 75.9 °F 54% 29.87 in 10.0 mi South 15.0 mph 25.3 mph N/A   Clear
5:52 PM 93.9 °F 104.0 °F 73.9 °F 52% 29.86 in 10.0 mi South 10.4 mph 19.6 mph N/A   Clear
6:52 PM 91.9 °F 103.9 °F 75.9 °F 59% 29.85 in 10.0 mi South 9.2 mph - N/A   Clear
7:52 PM 90.0 °F 101.3 °F 75.9 °F 63% 29.84 in 10.0 mi South 9.2 mph 18.4 mph N/A   Clear
8:52 PM 87.1 °F 96.3 °F 75.0 °F 67% 29.85 in 10.0 mi South 6.9 mph - N/A   Clear
9:52 PM 84.9 °F 92.1 °F 73.9 °F 69% 29.87 in 10.0 mi South 9.2 mph 16.1 mph N/A   Clear
10:52 PM 82.9 °F 88.8 °F 73.0 °F 72% 29.88 in 10.0 mi South 10.4 mph 19.6 mph N/A   Clear
11:52 PM 82.0 °F 86.7 °F 72.0 °F 71% 29.89 in 10.0 mi South 10.4 mph - N/A   Clear